Estación meteorológica de Torroella de Montgrí (Baix Empordà, Parc Natural del Montgrí, les Illes Medes i el Bai)

Consulta los datos en tiempo real de la estación meteorológica de Torroella de Montgrí





Hora UTC 14:20
Temperatura 25.4 ºC
Humedad 51.0 %
Presión 1009.3 hPa
Pluja 0.2 mm
Velocidad viento 8.0 km/h
Dirección viento

Datos diarios 2026-05-10



Hora UTC (invierno +1h; verano +2h)
Temperatura (ºC) Humedad (%) Presión (hPa) Velocidad viento (km/h) Precipitación (mm)
Hora UTC Aire Humedad Presión Vel. Dir. Vel. Max Dir. Intent. máx 5 min.
00:05 13.9 93.0 1014.0 3.2 22.5 24.4
00:10 13.9 93.0 1014.0 4.8 22.5 0.0
00:15 13.9 93.0 1014.0 4.8 22.5 0.0
00:20 13.9 93.0 1014.0 4.8 22.5 0.0
00:25 13.9 93.0 1013.7 3.2 22.5 0.0
00:30 13.9 93.0 1013.7 3.2 22.5 0.0
00:35 13.9 93.0 1013.7 3.2 22.5 0.0
00:40 13.9 93.0 1013.4 8.0 22.5 0.0
00:45 13.9 93.0 1013.4 8.0 22.5 0.0
00:50 13.9 93.0 1013.4 8.0 22.5 0.0
00:55 13.7 93.0 1013.3 3.2 22.5 0.0
01:00 13.7 93.0 1013.3 3.2 22.5 0.0
01:05 13.7 93.0 1013.3 3.2 22.5 0.0
01:10 13.6 93.0 1013.1 1.6 22.5 0.0
01:15 13.6 93.0 1013.1 1.6 22.5 0.0
01:20 13.6 93.0 1013.1 1.6 22.5 0.0
01:25 13.4 93.0 1012.8 1.6 22.5 0.0
01:30 13.4 93.0 1012.8 1.6 22.5 0.0
01:35 13.4 93.0 1012.8 1.6 22.5 0.0
01:40 13.4 94.0 1012.9 6.4 22.5 0.0
01:45 13.4 94.0 1012.9 6.4 22.5 0.0
01:50 13.4 94.0 1012.9 6.4 22.5 0.0
01:55 13.4 94.0 1012.7 0.0 22.5 0.0
02:00 13.4 94.0 1012.7 0.0 22.5 0.0
02:05 13.4 94.0 1012.7 0.0 22.5 0.0
02:10 13.2 94.0 1012.5 1.6 1.6 0.0
02:15 13.2 94.0 1012.5 1.6 1.6 0.0
02:20 13.2 94.0 1012.5 1.6 1.6 0.0
02:25 13.2 94.0 1012.6 0.0 1.6 0.0
02:30 13.2 94.0 1012.6 0.0 1.6 0.0
02:35 13.2 94.0 1012.6 0.0 1.6 0.0
02:40 13.2 94.0 1012.7 0.0 1.6 0.0
02:45 13.2 94.0 1012.7 0.0 1.6 0.0
02:50 13.2 94.0 1012.7 0.0 1.6 0.0
02:55 13.2 94.0 1012.8 1.6 1.6 0.3
03:00 13.2 94.0 1012.8 1.6 1.6 0.0
03:05 13.2 94.0 1012.7 0.0 1.6 0.0
03:10 13.2 94.0 1012.7 0.0 1.6 0.0
03:15 13.2 94.0 1012.7 0.0 1.6 0.0
03:20 13.2 94.0 1012.7 0.0 1.6 0.0
03:25 12.7 93.0 1012.5 1.6 1.6 0.0
03:30 12.7 93.0 1012.5 1.6 1.6 0.0
03:35 12.7 93.0 1012.5 1.6 1.6 0.0
03:40 12.6 94.0 1012.5 0.0 1.6 0.0
03:45 12.6 94.0 1012.5 0.0 1.6 0.0
03:50 12.6 94.0 1012.5 0.0 1.6 0.0
03:55 12.7 94.0 1012.6 1.6 1.6 0.0
04:00 12.7 94.0 1012.6 1.6 1.6 0.0
04:05 12.7 94.0 1012.6 1.6 1.6 0.0
04:10 12.6 94.0 1012.6 0.0 1.6 0.0
04:15 12.6 94.0 1012.6 0.0 1.6 0.0
04:20 12.6 94.0 1012.6 0.0 1.6 0.0
04:25 12.6 94.0 1012.3 0.0 1.6 0.0
04:30 12.6 94.0 1012.3 0.0 1.6 0.0
04:35 12.6 94.0 1012.3 0.0 1.6 0.0
04:40 12.1 93.0 1012.6 0.0 1.6 0.0
04:45 12.1 93.0 1012.6 0.0 1.6 0.0
04:50 12.1 93.0 1012.6 0.0 1.6 0.0
04:55 11.9 94.0 1012.3 0.0 1.6 0.0
05:00 11.9 94.0 1012.3 0.0 1.6 0.0
05:05 11.9 94.0 1012.3 0.0 1.6 0.0
05:10 11.7 93.0 1012.4 0.0 1.6 0.0
05:15 11.7 93.0 1012.4 0.0 1.6 0.0
05:20 11.7 93.0 1012.4 0.0 1.6 0.0
05:25 11.4 93.0 1012.2 1.6 1.6 0.0
05:30 11.4 93.0 1012.2 1.6 1.6 0.0
05:35 11.4 93.0 1012.2 1.6 1.6 0.0
05:40 11.3 94.0 1012.5 8.0 8.0 0.0
05:45 11.3 94.0 1012.5 8.0 8.0 0.0
05:50 11.3 94.0 1012.5 8.0 8.0 0.0
05:55 11.3 94.0 1012.4 1.6 8.0 0.0
06:00 11.3 94.0 1012.4 1.6 8.0 0.0
06:05 11.3 94.0 1012.4 1.6 8.0 0.0
06:10 11.5 95.0 1012.5 0.0 8.0 0.0
06:15 11.5 95.0 1012.5 0.0 8.0 0.0
06:20 11.5 95.0 1012.5 0.0 8.0 0.0
06:25 11.6 95.0 1012.3 4.8 8.0 0.0
06:30 11.6 95.0 1012.3 4.8 8.0 0.0
06:35 11.6 95.0 1012.3 4.8 8.0 0.0
06:40 11.9 95.0 1012.4 8.0 8.0 0.0
06:45 11.9 95.0 1012.4 8.0 8.0 0.0
06:50 11.9 95.0 1012.4 8.0 8.0 0.0
06:55 12.2 95.0 1012.4 6.4 8.0 0.0
07:00 12.2 95.0 1012.4 6.4 8.0 0.0
07:05 12.2 95.0 1012.4 6.4 8.0 0.0
07:10 12.4 95.0 1012.5 6.4 8.0 0.0
07:15 12.4 95.0 1012.5 6.4 8.0 0.0
07:20 12.4 95.0 1012.5 6.4 8.0 0.0
07:25 12.7 95.0 1012.6 3.2 8.0 0.0
07:30 12.7 95.0 1012.6 3.2 8.0 0.0
07:35 12.7 95.0 1012.6 3.2 8.0 0.0
07:40 12.8 95.0 1012.5 6.4 8.0 0.0
07:45 12.8 95.0 1012.5 6.4 8.0 0.0
07:50 12.8 95.0 1012.5 6.4 8.0 0.0
07:55 13.4 95.0 1012.6 6.4 8.0 0.0
08:00 13.4 95.0 1012.6 6.4 8.0 0.0
08:05 13.4 95.0 1012.6 6.4 8.0 0.0
08:10 14.2 95.0 1012.3 1.6 8.0 0.0
08:15 14.2 95.0 1012.3 1.6 8.0 0.0
08:20 14.2 95.0 1012.3 1.6 8.0 0.0
08:25 15.1 93.0 1012.4 0.0 8.0 0.0
08:30 15.1 93.0 1012.4 0.0 8.0 0.0
08:35 15.8 89.0 1012.4 0.0 8.0 0.0
08:40 15.8 89.0 1012.4 0.0 8.0 0.0
08:45 15.8 89.0 1012.4 0.0 8.0 0.0
08:50 15.8 89.0 1012.4 0.0 8.0 0.0
08:55 16.7 85.0 1012.3 1.6 8.0 0.0
09:00 16.7 85.0 1012.3 1.6 8.0 0.0
09:05 16.7 85.0 1012.3 1.6 8.0 0.0
09:10 17.6 80.0 1012.4 0.0 8.0 0.0
09:15 17.6 80.0 1012.4 0.0 8.0 0.0
09:20 17.6 80.0 1012.4 0.0 8.0 0.0
09:25 18.7 76.0 1012.3 1.6 8.0 0.0
09:30 18.7 76.0 1012.3 1.6 8.0 0.0
09:35 18.7 76.0 1012.3 1.6 8.0 0.0
09:40 19.4 73.0 1012.2 0.0 8.0 0.0
09:45 19.4 73.0 1012.2 0.0 8.0 0.0
09:50 19.4 73.0 1012.2 0.0 8.0 0.0
09:55 20.1 71.0 1012.1 3.2 8.0 0.0
10:00 20.1 71.0 1012.1 3.2 8.0 0.0
10:05 20.1 71.0 1012.1 3.2 8.0 0.0
10:10 20.2 72.0 1012.1 4.8 8.0 0.0
10:15 20.2 72.0 1012.1 4.8 8.0 0.0
10:20 20.2 72.0 1012.1 4.8 8.0 0.0
10:25 20.6 73.0 1011.9 0.0 8.0 0.0
10:30 20.6 73.0 1011.9 0.0 8.0 0.0
10:35 20.6 73.0 1011.9 0.0 8.0 0.0
10:40 20.7 73.0 1011.8 4.8 8.0 0.0
10:45 20.7 73.0 1011.8 4.8 8.0 0.0
10:50 20.7 73.0 1011.8 4.8 8.0 0.0
10:55 20.6 72.0 1011.7 1.6 8.0 0.0
11:00 20.6 72.0 1011.7 1.6 8.0 0.0
11:05 20.6 72.0 1011.7 1.6 8.0 0.0
11:10 21.2 71.0 1011.4 0.0 8.0 0.0
11:15 21.2 71.0 1011.4 0.0 8.0 0.0
11:20 21.2 71.0 1011.4 0.0 8.0 0.0
11:25 21.6 71.0 1011.1 1.6 8.0 0.0
11:30 21.6 71.0 1011.1 1.6 8.0 0.0
11:35 21.6 71.0 1011.1 1.6 8.0 0.0
11:40 22.2 69.0 1011.1 1.6 8.0 0.0
11:45 22.2 69.0 1011.1 1.6 8.0 0.0
11:50 22.2 69.0 1011.1 1.6 8.0 0.0
11:55 22.5 69.0 1010.9 9.7 9.7 0.0
12:00 22.5 69.0 1010.9 9.7 9.7 0.0
12:05 22.5 69.0 1010.9 9.7 9.7 0.0
12:10 22.9 64.0 1010.6 8.0 9.7 0.0
12:15 22.9 64.0 1010.6 8.0 9.7 0.0
12:20 22.9 64.0 1010.6 8.0 9.7 0.0
12:25 22.9 64.0 1010.6 8.0 9.7 0.0
12:30 22.9 64.0 1010.6 8.0 9.7 0.0
12:35 22.9 64.0 1010.6 8.0 9.7 0.0
12:40 22.9 64.0 1010.6 8.0 9.7 0.0
12:45 22.9 64.0 1010.6 8.0 9.7 0.0
12:50 22.9 64.0 1010.6 8.0 9.7 0.0
12:55 22.9 64.0 1010.6 8.0 9.7 0.0
13:00 22.9 64.0 1010.6 8.0 9.7 0.0
13:05 22.9 64.0 1010.6 8.0 9.7 0.0
13:10 22.9 64.0 1010.6 8.0 9.7 0.0
13:15 22.9 64.0 1010.6 8.0 9.7 0.0
13:20 24.7 53.0 1009.9 11.3 11.3 0.0
13:25 25.1 53.0 1009.7 14.5 14.5 0.0
13:30 25.1 53.0 1009.7 14.5 14.5 0.0
13:35 25.1 53.0 1009.7 14.5 14.5 0.0
13:40 25.6 49.0 1009.6 16.1 16.1 0.0
13:45 25.6 49.0 1009.6 16.1 16.1 0.0
13:50 25.6 49.0 1009.6 16.1 16.1 0.0
13:55 25.4 50.0 1009.4 12.9 16.1 0.0
14:00 25.4 50.0 1009.4 12.9 16.1 0.0
14:05 25.4 51.0 1009.3 8.0 16.1 0.0
14:10 25.4 51.0 1009.3 8.0 16.1 0.0
14:15 25.4 51.0 1009.3 8.0 16.1 0.0
14:20 25.4 51.0 1009.3 8.0 16.1 0.0
Máxima 25.6 95.0 1014.0 16.1 22.5 24.4
Mínima 11.3 49.0 1009.3
Total 24.7